Regional Weather Roundup
Issued by NWS

Home | Current Version | Previous Version | Graphics & Text | Print | Product List | Glossary Off
Versions: 1 2 3 4 5 6 7 8 9 10 11 12 13 14 15 16 17 18 19 20 21 22 23 24 25 26 27 28 29 30 31 32 33 34 35 36 37 38 39 40 41 42 43 44 45 46 47 48 49 50

000
ASUS43 KMKX 270920
RWRWI

WISCONSIN REGIONAL WEATHER ROUNDUP
NATIONAL WEATHER SERVICE MILWAUKEE/SULLIVAN WI
400 AM CDT FRI APR 27 2018

NOTE: "FAIR" INDICATES FEW OR NO CLOUDS BELOW 12,000 FEET WITH NO
SIGNIFICANT WEATHER AND/OR OBSTRUCTIONS TO VISIBILITY.

WIZ001-002-006>008-014>016-023>028-271000-
NORTHWEST WISCONSIN

CITY           SKY/WX    TMP DP  RH WIND       PRES   REMARKS
SUPERIOR ARPT  CLOUDY    33  28  83 CALM      29.82F
ASHLAND        MOCLDY    30  28  92 W5        29.85R WCI  25
HAYWARD        MOCLDY    29  26  89 CALM      29.84S
SIREN          CLOUDY    35  26  71 CALM      29.84F
CUMBERLAND     MOCLDY    32  27  80 CALM      29.84S
RICE LAKE      MOCLDY    31  30  96 CALM      29.86S
CHETEK         FAIR      29  28  97 CALM      29.85S
LADYSMITH      FAIR      30  29  94 CALM      29.86S
EAU CLAIRE     FAIR      32  30  92 CALM      29.85S
MENOMONIE      FAIR      37  29  73 CALM      29.86S
NEW RICHMOND   MOCLDY    37  27  67 SE3       29.84F
OSCEOLA        CLOUDY    36  30  79 E3        29.86F
$$

WIZ003>005-009-010-017-018-271000-
NORTH CENTRAL WISCONSIN

CITY           SKY/WX    TMP DP  RH WIND       PRES   REMARKS
MANITOWISH WTR FAIR      24  24 100 CALM      29.82F
ARBOR VITAE    FAIR      27  25  94 CALM      29.82F
WOODRUFF       FAIR      27  25  94 CALM      29.82F
RHINELANDER    FAIR      26  25  96 CALM      29.83S FOG
EAGLE RIVER    FOG       26  26 100 CALM      29.82F VSB 1/2
LAND O LAKES   FOG       23  22  96 CALM      29.85S VSB 1/4
PHILLIPS       FAIR      24  24 100 CALM      29.83R
TOMAHAWK       FAIR      23  22  95 CALM      29.84S
MEDFORD        FAIR      28  27  98 CALM      29.83F
MERRILL        FAIR      26  26 100 CALM      29.85S
$$

WIZ029-030-035-036-043>047-271000-
CENTRAL WISCONSIN

CITY           SKY/WX    TMP DP  RH WIND       PRES   REMARKS
WAUSAU         FAIR      32  30  92 NW3       29.83F
MOSINEE        FAIR      34  32  93 N5        29.85S WCI  30
MARSHFIELD     FAIR      35  32  88 CALM      29.83F
STEVENS POINT  FAIR      30  30 100 CALM      29.85S
WAUPACA        FAIR      38  32  80 N3        29.85S
WAUTOMA        FAIR      34  31  88 CALM      29.85S
WISC RAPIDS    FAIR      34  29  82 CALM      29.85F
CAMP DOUGLAS   FAIR      30  29  97 W5        29.85F WCI  25
$$

WIZ011>013-019>022-031-037>040-048>050-271000-
NORTHEAST WISCONSIN

CITY           SKY/WX    TMP DP  RH WIND       PRES   REMARKS
ANTIGO           N/A     29  29 100 CALM      29.83F
SHAWANO        FAIR      37  32  84 CALM      29.84F
OCONTO         FAIR      34  33  94 CALM      29.84S
STURGEON BAY   FAIR      35  33  92 N9        29.83F WCI  28
GREEN BAY      FAIR      37  34  89 N3        29.84S
MANITOWOC      CLOUDY    39  34  82 N12       29.82F WCI  32
APPLETON       FAIR      36  30  80 N5        29.82S WCI  32
CLINTONVILLE   FAIR      38  31  76 N3        29.84F
OSHKOSH        FAIR      40  34  79 N8        29.83S WCI  34
$$

WIZ032>034-041-042-053>061-271000-
SOUTHWEST WISCONSIN

CITY           SKY/WX    TMP DP  RH WIND       PRES   REMARKS
LA CROSSE      FAIR      43  33  68 CALM      29.86F
SPARTA         FAIR      29  28  94 CALM      29.87F
VIROQUA        FAIR      40  34  81 CALM      29.85F
BOSCOBEL       FAIR      37  31  78 CALM      29.87F
PRAIRIE DU CHI FAIR      42  32  68 CALM      29.87F
PLATTEVILLE    FAIR      40  32  71 N7        29.86S
$$

WIZ056-057-062-063-064-067-068-271000-
SOUTH CENTRAL WISCONSIN

CITY           SKY/WX    TMP DP  RH WIND       PRES   REMARKS
REEDSBURG      FAIR      39  31  71 CALM      29.84F
BARABOO/DELLS  FAIR      37  30  74 CALM      29.84F
LONE ROCK      FAIR      37  30  75 SW3       29.86S
MINERAL POINT  FAIR      41  32  70 NW3       29.84F
MADISON        FAIR      41  33  73 N6        29.83S
MIDDLETON      FAIR      42  33  69 CALM      29.84F
WATERTOWN      FAIR      42  38  87 N6        29.83R
MONROE         FAIR      45  32  61 N9G16     29.83R
JANESVILLE     FAIR      46  36  66 N12       29.82R
$$

WIZ051-052-058>065-066-070>072-271000-
SOUTHEAST WISCONSIN

CITY           SKY/WX    TMP DP  RH WIND       PRES   REMARKS
MILWAUKEE      MOCLDY    44  36  73 N15G23    29.79S
WAUKESHA       FAIR      41  34  75 N10       29.81S
MILWAUKEE/TIMM FAIR      41  34  75 N10G16    29.81F
RACINE         CLOUDY    42  35  76 N22G36    29.81R
BURLINGTON     FAIR      44  34  66 N5        29.80S
KENOSHA        MOCLDY    44  34  67 N15G28    29.79R
FOND DU LAC    FAIR      40  34  79 N9        29.83F WCI  34
SHEBOYGAN      MOCLDY    40  36  86 N10       29.81S WCI  33
WEST BEND      FAIR      39  32  75 N6        29.82S WCI  35
JUNEAU         FAIR      40  36  85 N5        29.84S
$$

LSZ147-162-271000-
LAKE SUPERIOR

STATION/POSITION TIME  TEMP    WIND        PRES    WAVE
                       AIR SEA DIR/SP/G            HT/PER
                 (UTC) (F)     (DEG/KT/KT) (MB)    (FT/S)
DEVILS ISLAND    0900   37     100/  9/ 11 1011.6S
SAXON HARBOR     0830   29     180/  1/  2 1010.2S
$$

LMZ867-665-643>646-271000-
LAKE MICHIGAN

STATION/POSITION TIME  TEMP    WIND        PRES    WAVE
                       AIR SEA DIR/SP/G            HT/PER
                 (UTC) (F)     (DEG/KT/KT) (MB)    (FT/S)
NORTHPORT PIER   0840   35                 1010.2R
KEWAUNEE LAKESHO 0854   38     350/  4/  8 1009.3F
SHEBOYGAN LAKESH 0900   41     350/ 17/ 19 1009.9F
PORT WASHINGTON  0840   43     350/  6/ 12 1010.8R
MILWAUKEE LAKESH 0900   43     360/ 13/ 16   N/A
KENOSHA   LAKESH 0900   43                 1008.8
$$

TC  - TEMPERATURE IN CELSIUS
VSB - VISIBILITY IN STATUTE MILES
WCI - WIND CHILL INDEX
HX  - HEAT INDEX





USA.gov is the U.S. government's official web portal to all federal, state and local government web resources and services.